PAGINA EN CONSTRUCCIÓN

DISCULPEN POSIBLES FALLOS



Daganzo more information Daganzo


Meteosat more information blitzortung!


Radar lluvias  rain snow radar


Visita nuestra red de sitios de meteo:

Documentation for the template used

MeteoibericaRed estaciones Meteorologicas



Sin Advertencias climatologicas .En este momento tenemos Nivel Verde.    No hay Alarmas

Pagina Historial Weather Underground texto

Diario Resumen Septiembre 22, 2018 Unidades:  Métrico    impérial   Tanto
« Anterior Dia
Siguiente Dia »
Diario Semana Mensual Anual Personalizada
  Actual: Alto: Baja: Media:
Temperatura: -6.8 °C -17.8 °C -7.3 °C -6.2 °C
Punto de rocío: -10.1 °C -17.8 °C -11.1 °C -10.7 °C
Humedad: 69 % Humidity % 51 % 59 %
Velocidad del Viento: 23.8 km/h 0 km/h 5.1 km/h 18.5 km/h
Ráfagas de viento: 15.6 km/h 0 km/h - -
Viento:North - - ENE
Pression baro: 34615.1 hPa 0 hPa 34571.1 hPa -
Précipitaciones: 0 mm      
Historical Graphs
 
 
Datos de tabla para Septiembre 22, 2018
Tiempo Temperatura Punto de rocío Pression baro Viento Velocidad del Viento Ráfagas de viento Humedad Las precipitaciones Rate ( Hora )
-17.8 °C -17.8 °C 0 hPa Calm     Humidity % 0 mm
00:00 -4.8 °C -10.6 °C 34571.1 hPa North 11.6 km/h 8 km/h 52 % 0 mm
00:05 -4.7 °C -10.4 °C 34577.8 hPa North 15.6 km/h 8 km/h 52 % 0 mm
00:10 -4.6 °C -10.4 °C 34574.4 hPa North 21.6 km/h 15.6 km/h 52 % 0 mm
00:15 -4.5 °C -10.4 °C 34574.4 hPa West 23.8 km/h 14 km/h 51 % 0 mm
00:20 -4.5 °C -10.4 °C 34581.2 hPa North 23.8 km/h 14 km/h 51 % 0 mm
00:25 -4.6 °C -10.5 °C 34584.6 hPa North 25.4 km/h 15.6 km/h 51 % 0 mm
00:30 -4.6 °C -10.4 °C 34577.8 hPa West 20.9 km/h 11.6 km/h 52 % 0 mm
00:35 -4.7 °C -10.5 °C 34577.8 hPa North 20.9 km/h 11.6 km/h 52 % 0 mm
00:40 -4.7 °C -10.5 °C 34577.8 hPa North 19.6 km/h 11.6 km/h 52 % 0 mm
00:45 -4.7 °C -10.4 °C 34584.6 hPa North 23.8 km/h 15.6 km/h 52 % 0 mm
00:50 -4.7 °C -10.5 °C 34581.2 hPa North 17.9 km/h 8 km/h 52 % 0 mm
00:55 -4.8 °C -10.6 °C 34577.8 hPa North 11.9 km/h 1.8 km/h 52 % 0 mm
01:00 -5.1 °C -10.7 °C 34577.8 hPa North 9.8 km/h 5.6 km/h 53 % 0 mm
01:05 -5.1 °C -10.7 °C 34581.2 hPa North 5.1 km/h 10.3 km/h 53 % 0 mm
01:10 -5.6 °C -10.8 °C 34584.6 hPa North 15.6 km/h 11.6 km/h 55 % 0 mm
01:15 -5.6 °C -10.9 °C 34584.6 hPa North 15.6 km/h 9.8 km/h 55 % 0 mm
01:20 -5.7 °C -10.9 °C 34584.6 hPa North 15 km/h 9.8 km/h 55 % 0 mm
01:25 -5.7 °C -10.9 °C 34584.6 hPa North 15 km/h 9.8 km/h 55 % 0 mm
01:30 -5.8 °C -11 °C 34588 hPa North 17.9 km/h 14 km/h 55 % 0 mm
01:35 -5.8 °C -11 °C 34588 hPa WNW 20.9 km/h 14 km/h 55 % 0 mm
01:40 -5.8 °C -11.1 °C 34584.6 hPa North 20.9 km/h 11.6 km/h 55 % 0 mm
01:45 -5.8 °C -10.9 °C 34588 hPa North 17.9 km/h 14 km/h 56 % 0 mm
01:50 -5.8 °C -11 °C 34588 hPa North 20.9 km/h 11.6 km/h 55 % 0 mm
01:55 -5.8 °C -11 °C 34591.4 hPa North 15 km/h 9.8 km/h 55 % 0 mm
02:00 -5.8 °C -10.9 °C 34588 hPa North 15.6 km/h 9.8 km/h 56 % 0 mm
02:05 -5.8 °C -10.9 °C 34588 hPa North 7.7 km/h 15.6 km/h 56 % 0 mm
02:10 -5.7 °C -10.9 °C 34591.4 hPa North 20.9 km/h 9.8 km/h 55 % 0 mm
02:15 -5.6 °C -10.9 °C 34588 hPa North 20.9 km/h 9.8 km/h 55 % 0 mm
02:20 -5.7 °C -10.9 °C 34591.4 hPa North 20.9 km/h 9.8 km/h 55 % 0 mm
02:25 -5.8 °C -11 °C 34584.6 hPa North 15 km/h 9.8 km/h 55 % 0 mm
02:30 -5.8 °C -11.1 °C 34594.8 hPa NW 17.9 km/h 11.6 km/h 55 % 0 mm
02:35 -5.9 °C -10.9 °C 34591.4 hPa NW 15.6 km/h 9.8 km/h 56 % 0 mm
02:40 -5.9 °C -10.9 °C 34591.4 hPa NW 17.9 km/h 8 km/h 56 % 0 mm
02:45 -5.9 °C -10.9 °C 34591.4 hPa North 21.6 km/h 11.6 km/h 56 % 0 mm
02:50 -5.9 °C -10.9 °C 34588 hPa North 20.9 km/h 11.6 km/h 56 % 0 mm
02:55 -5.8 °C -11.1 °C 34591.4 hPa North 17.9 km/h 9.8 km/h 55 % 0 mm
03:00 -5.9 °C -10.9 °C 34584.6 hPa North 20.9 km/h 9.8 km/h 56 % 0 mm
03:05 -5.9 °C -10.9 °C 34584.6 hPa NW 15 km/h 9.8 km/h 56 % 0 mm
03:10 -5.9 °C -11.1 °C 34588 hPa North 21.6 km/h 17.9 km/h 55 % 0 mm
03:15 -6.1 °C -11.1 °C 34588 hPa North 26.9 km/h 17.9 km/h 56 % 0 mm
03:20 -6.1 °C -11.1 °C 34588 hPa North 27.7 km/h 19.6 km/h 56 % 0 mm
03:25 -6.1 °C -11.1 °C 34584.6 hPa NW 26.9 km/h 17.9 km/h 56 % 0 mm
03:30 -6 °C -11.1 °C 34584.6 hPa North 27.7 km/h 19.6 km/h 56 % 0 mm
03:35 -6.1 °C -11 °C 34581.2 hPa North 26.9 km/h 19.6 km/h 57 % 0 mm
03:40 -6.1 °C -11 °C 34584.6 hPa North 23.8 km/h 17.9 km/h 57 % 0 mm
03:45 -6.1 °C -10.9 °C 34577.8 hPa North 26.9 km/h 17.9 km/h 58 % 0 mm
03:50 -6.1 °C -10.9 °C 34584.6 hPa North 29.8 km/h 17.9 km/h 58 % 0 mm
03:55 -6.2 °C -10.9 °C 34584.6 hPa West 26.9 km/h 19.6 km/h 58 % 0 mm
04:00 -6.2 °C -10.8 °C 34584.6 hPa North 23.8 km/h 17.9 km/h 59 % 0 mm
04:05 -6.2 °C -10.8 °C 34584.6 hPa North 23.8 km/h 17.9 km/h 59 % 0 mm
04:10 -6.1 °C -10.7 °C 34588 hPa North 23.8 km/h 17.9 km/h 59 % 0 mm
04:15 -6.1 °C -10.7 °C 34584.6 hPa North 26.9 km/h 15.6 km/h 59 % 0 mm
04:20 -6.1 °C -10.7 °C 34584.6 hPa North 26.9 km/h 17.9 km/h 59 % 0 mm
04:25 -6 °C -10.8 °C 34584.6 hPa North 26.9 km/h 11.6 km/h 58 % 0 mm
04:30 -6 °C -10.6 °C 34588 hPa North 20.9 km/h 8 km/h 59 % 0 mm
04:35 -6.1 °C -10.7 °C 34584.6 hPa NW 17.9 km/h 11.6 km/h 59 % 0 mm
04:40 -6.1 °C -10.7 °C 34588 hPa North 20.9 km/h 9.8 km/h 59 % 0 mm
04:45 -6.2 °C -10.7 °C 34584.6 hPa North 11.9 km/h 5.6 km/h 60 % 0 mm
04:50 -6.3 °C -10.8 °C 34588 hPa West 15.6 km/h 5.6 km/h 60 % 0 mm
04:55 -6.3 °C -10.7 °C 34584.6 hPa North 15.6 km/h 11.6 km/h 61 % 0 mm
05:00 -6.4 °C -10.7 °C 34588 hPa North 11.9 km/h 5.6 km/h 61 % 0 mm
05:05 -6.4 °C -10.7 °C 34588 hPa North 11.9 km/h 5.6 km/h 61 % 0 mm
05:10 -6.5 °C -10.7 °C 34588 hPa North 15 km/h 9.8 km/h 62 % 0 mm
05:15 -6.6 °C -10.6 °C 34588 hPa North 11.9 km/h 5.6 km/h 63 % 0 mm
05:20 -6.6 °C -10.7 °C 34588 hPa North 11.9 km/h 5.6 km/h 63 % 0 mm
05:25 -6.7 °C -10.6 °C 34588 hPa North 9 km/h 4.2 km/h 64 % 0 mm
05:30 -6.7 °C -10.6 °C 34594.8 hPa East 9 km/h 1.8 km/h 64 % 0 mm
05:35 -6.7 °C -10.6 °C 34594.8 hPa North 5.6 km/h 1.8 km/h 64 % 0 mm
05:40 -6.7 °C -10.4 °C 34598.1 hPa North 11.9 km/h 4.2 km/h 65 % 0 mm
05:45 -6.7 °C -10.4 °C 34598.1 hPa NW 14 km/h 5.6 km/h 66 % 0 mm
05:50 -6.8 °C -10.4 °C 34601.5 hPa NW 9 km/h 1.8 km/h 66 % 0 mm
05:55 -6.9 °C -10.4 °C 34594.8 hPa NW 11.6 km/h 8 km/h 67 % 0 mm
06:00 -6.9 °C -10.4 °C 34591.4 hPa North 15 km/h 8 km/h 67 % 0 mm
06:05 -6.9 °C -10.4 °C 34594.8 hPa North 11.9 km/h 9.8 km/h 67 % 0 mm
06:10 -7 °C -10.4 °C 34601.5 hPa North 19.6 km/h 11.6 km/h 68 % 0 mm
06:15 -7.2 °C -10.4 °C 34601.5 hPa North 15.6 km/h 11.6 km/h 69 % 0 mm
06:20 -7.2 °C -10.3 °C 34598.1 hPa North 15 km/h 9.8 km/h 70 % 0 mm
06:25 -7.2 °C -10.3 °C 34601.5 hPa North 15 km/h 8 km/h 70 % 0 mm
06:30 -7.3 °C -10.4 °C 34601.5 hPa North 17.9 km/h 14 km/h 70 % 0 mm
06:35 -7.3 °C -10.4 °C 34598.1 hPa NW 17.9 km/h 11.6 km/h 70 % 0 mm
06:40 -7.3 °C -10.3 °C 34598.1 hPa North 21.6 km/h 11.6 km/h 71 % 0 mm
06:45 -7.2 °C -10.3 °C 34601.5 hPa North 17.9 km/h 11.6 km/h 70 % 0 mm
06:50 -7.1 °C -10.2 °C 34608.3 hPa North 17.9 km/h 11.6 km/h 70 % 0 mm
06:55 -7.1 °C -10.2 °C 34608.3 hPa North 15 km/h 9.8 km/h 70 % 0 mm
07:00 -7 °C -10.2 °C 34608.3 hPa West 20.9 km/h 11.6 km/h 69 % 0 mm
07:05 -6.9 °C -10.2 °C 34608.3 hPa North 17.9 km/h 11.6 km/h 69 % 0 mm
07:10 -6.9 °C -10.2 °C 34604.9 hPa West 17.9 km/h 11.6 km/h 69 % 0 mm
07:15 -6.9 °C -10.2 °C 34608.3 hPa North 20.9 km/h 9.8 km/h 69 % 0 mm
07:20 -6.9 °C -10.1 °C 34604.9 hPa North 20.9 km/h 11.6 km/h 69 % 0 mm
07:25 -6.9 °C -10.1 °C 34608.3 hPa North 23.8 km/h 14 km/h 69 % 0 mm
07:30 -6.8 °C -10.1 °C 34611.7 hPa WNW 29.8 km/h 14 km/h 69 % 0 mm
07:35 -6.8 °C -10.1 °C 34615.1 hPa North 25.4 km/h 19.6 km/h 69 % 0 mm
07:40 -6.8 °C -10.1 °C 34611.7 hPa North 26.9 km/h 15.6 km/h 69 % 0 mm
07:45 -6.8 °C -10.1 °C 34615.1 hPa North 23.8 km/h 14 km/h 69 % 0 mm
07:50 -6.8 °C -10.1 °C 34615.1 hPa North 23.8 km/h 15.6 km/h 69 % 0 mm
meteodaganzo
Elogios de Weather Underground - 2 mb

Guión original por  Jim McMurry - jmcmurry@mwt.net Adaptado para la plantilla por  Wim van der Kuil - Leuven-Template.eu

Usted encontrará nuestra información del tiempo también en:

WeatherCloud

Weather Underground

Iberian Peninsula Weather Network

AWEKAS

Citizen Weather Observer Program (CWOP)